Temperature
16 16 16 16 16 16 16 16 16 16 16 16 16 16 15 15 15 15 15 15 15 15 15 16 16 16 16 16 16 15 15 15 15 15 15 15 15 15 15 15 15 15 15
17 16 16 16 16 16 16 16 16 16 16 16 15 15 15 15 15 15 15 15 15 15 15 15 15 15 15 15 15 15 15 15 15 15 15 15 15 15 15 15 14 14 14
16 16 16 16 16 16 16 16 16 16 15 15 15 15 15 15 15 14 14 14 14 15 15 15 15 15 15 15 15 14 14 14 14 14 14 14 14 14 14 14 14 14 14
16 16 16 16 16 16 16 16 15 15 15 15 15 15 15 14 14 14 14 14 14 14 14 14 14 14 14 14 14 14 14 14 14 14 14 14 14 14 14 13 13 13 13
16 16 16 16 16 16 16 15 15 15 15 15 15 15 14 14 14 14 14 14 14 14 14 14 14 14 14 14 14 14 14 14 14 13 13 13 13 13 13 13 13 13 13
16 16 16 16 16 15 15 15 15 15 15 15 15 15 14 14 14 14 14 14 14 14 13 13 13 13 13 13 13 13 13 13 13 13 13 13 13 13 13 13 13 12 12
16 16 16 15 15 15 15 15 15 15 15 15 15 15 14 14 14 14 14 14 14 13 13 13 13 13 13 13 13 13 13 13 13 13 13 13 12 12 12 12 12 12 12
15 15 15 15 15 15 15 15 15 15 15 15 15 15 14 14 14 14 14 14 13 13 13 13 13 13 13 13 13 13 13 13 12 12 12 12 12 12 12 12 12 12 12
15 15 15 15 15 15 15 15 15 15 15 15 15 15 14 14 14 14 14 13 13 13 13 13 13 12 13 13 13 13 13 13 12 12 12 12 12 12 12 12 11 11 11
15 15 15 15 15 15 15 15 15 15 15 15 15 15 15 15 14 13 13 13 13 13 13 12 12 12 12 12 13 13 12 12 12 12 12 12 11 11 11 11 11 11 11
15 15 15 15 15 15 15 15 15 15 15 15 15 15 15 15 15 14 13 13 13 13 12 12 12 12 12 12 12 12 12 12 12 12 11 11 11 11 11 11 11 11 11
15 15 15 15 15 15 15 14 14 14 15 15 15 15 14 14 14 14 14 13 13 12 12 12 12 12 12 12 12 12 12 12 12 12 11 11 11 11 11 10 10 10 10
15 15 15 15 14 14 14 14 14 14 14 14 14 14 14 14 14 14 14 13 13 12 12 12 12 12 12 12 12 12 12 12 11 11 11 11 11 11 10 10 10 10 10
15 15 15 14 14 14 14 14 14 14 14 14 14 14 14 14 14 14 14 14 13 12 12 12 12 12 12 12 11 11 11 11 11 11 11 11 11 11 10 10 10 10 10
15 15 14 14 14 14 14 14 14 14 14 14 14 14 14 14 14 14 14 13 13 13 12 11 11 11 11 11 11 11 11 11 11 11 11 11 11 11 10 10 10 10 10
15 14 14 14 14 14 14 14 14 14 14 14 14 14 14 14 13 13 13 13 13 13 12 12 12 11 11 11 11 11 11 11 11 11 11 11 11 11 10 10 10 10 10
14 14 14 14 14 14 14 14 14 14 14 14 14 14 13 13 13 13 13 13 13 13 13 12 11 11 11 11 11 11 11 11 11 11 11 11 11 11 10 10 10 10 10
14 14 14 14 14 14 14 14 14 14 14 13 13 13 13 13 13 13 13 13 13 13 12 12 11 11 11 11 11 11 11 10 11 10 10 10 10 10 10 10 10 10 10
14 14 14 14 14 14 14 14 14 13 13 13 13 13 13 13 13 13 13 13 12 12 12 12 11 11 11 11 11 10 10 10 10 10 10 10 10 10 10 10 10 10 9
14 14 14 14 14 14 14 13 13 13 13 13 13 13 13 13 13 13 13 12 12 12 12 11 11 11 11 11 10 10 10 10 10 10 10 10 10 10 10 10 9 9 9
14 14 14 14 14 13 13 13 13 13 13 13 13 13 13 13 13 13 13 12 12 12 11 11 11 11 11 11 10 10 10 10 10 10 10 10 10 10 10 9 9 9 9
14 14 14 13 13 13 13 13 13 13 13 13 13 13 13 13 13 12 12 12 12 12 11 11 11 11 11 11 10 10 10 10 10 10 10 10 10 10 9 9 9 9 9
14 13 13 13 13 13 13 13 13 13 13 13 13 12 12 13 12 12 12 12 12 12 11 11 11 11 11 11 10 10 10 10 10 10 10 10 10 9 9 9 9 9 8
13 13 13 13 13 13 13 13 13 13 13 12 12 12 12 12 12 12 12 12 12 11 11 11 11 11 11 11 10 10 10 10 9 10 9 9 9 9 9 9 9 8 8
13 13 13 13 13 12 12 12 12 12 12 12 12 12 12 12 12 12 12 12 11 11 11 11 11 10 10 10 10 10 10 9 9 9 9 9 9 9 9 9 8 8 8
13 13 12 12 12 12 12 12 12 12 12 12 12 12 12 12 11 11 11 11 11 11 10 10 10 10 10 10 10 10 9 9 9 9 9 9 9 8 8 8 8 8 7
Wind_Speed
2 3 4 5 4 4 4 4 5 7 7 8 9 10 9 10 11 12 12 15 16 16 16 15 15 14 13 13 12 12 12 12 12 12 12 12 12 12 12 12 13 12 11
4 4 4 4 4 5 5 5 6 5 5 6 6 8 8 9 11 11 12 13 15 16 16 16 15 14 13 13 13 12 12 13 12 13 13 12 12 12 12 12 12 13 12
6 5 3 4 4 6 7 6 6 5 4 5 6 7 7 8 9 10 11 11 12 14 16 16 16 15 14 14 13 13 13 13 13 13 13 13 13 13 13 13 13 12 12
7 6 3 3 6 6 5 3 4 4 4 4 5 5 5 6 8 9 10 11 11 11 13 15 15 15 15 14 14 13 13 13 13 13 13 14 14 14 13 13 13 12 12
8 6 3 4 6 4 3 4 4 4 4 4 4 4 4 4 5 8 9 10 11 11 11 13 14 15 16 15 15 15 14 13 13 13 13 14 14 13 13 13 13 13 13
7 5 3 4 5 4 4 4 4 3 3 3 5 5 4 4 4 5 6 9 10 10 11 11 11 13 15 15 14 14 14 13 13 14 14 14 13 13 13 13 14 13 13
5 5 3 3 4 3 3 4 3 3 2 3 3 3 4 4 5 4 5 5 6 9 10 11 10 10 12 14 14 13 13 13 14 14 13 13 13 13 13 14 14 13 13
5 3 3 3 3 3 3 3 3 2 1 2 2 2 2 2 3 4 3 4 4 7 8 10 11 11 12 12 12 13 12 12 13 13 12 12 12 12 12 12 12 13 13
4 4 3 2 3 3 3 2 2 2 1 1 1 2 2 1 1 2 4 4 4 4 5 9 11 11 12 12 12 12 13 12 12 12 12 11 11 11 11 11 12 12 12
3 3 3 2 2 2 3 1 2 1 1 1 2 1 2 2 2 2 2 3 4 5 4 6 9 11 13 12 13 13 13 12 12 12 12 11 11 10 11 11 11 11 11
2 2 2 2 2 2 2 2 2 2 1 1 0 1 1 0 1 2 2 2 3 3 3 5 6 8 11 11 11 12 12 12 11 11 11 10 10 10 10 10 10 10 10
1 2 2 1 1 2 2 2 2 2 1 1 1 1 1 1 1 1 2 3 3 1 3 3 5 6 9 10 10 11 11 10 10 10 10 10 10 9 9 8 8 8 9
1 1 1 1 1 2 3 2 2 1 1 1 1 1 1 1 1 2 2 2 2 2 2 2 4 6 7 9 9 9 9 9 9 9 9 9 9 8 8 8 7 7 8
3 2 2 2 1 2 3 2 1 1 1 2 2 2 2 2 2 2 2 3 2 1 2 2 2 5 6 8 8 8 7 7 7 7 7 7 7 7 7 7 7 7 7
3 3 3 2 2 2 2 3 2 2 2 2 2 1 2 1 2 2 2 2 2 2 1 2 1 2 6 7 8 7 7 6 6 6 6 5 6 6 6 6 6 6 7
3 3 3 3 3 2 2 3 2 1 3 2 1 2 2 1 2 2 2 2 2 2 2 1 2 2 4 5 6 7 7 7 6 5 5 4 4 5 5 5 5 5 6
4 3 3 3 3 3 3 3 2 2 2 1 1 2 2 2 2 2 2 2 2 3 3 1 2 2 3 3 4 6 8 8 6 5 5 4 4 4 3 4 4 4 4
4 4 4 3 3 3 3 3 3 2 1 2 2 2 2 2 2 2 2 2 2 2 4 3 2 1 2 3 3 3 5 6 6 6 6 5 4 3 2 1 2 2 2
3 3 3 3 3 2 2 3 3 2 2 1 2 2 3 3 2 2 2 2 2 3 3 3 2 1 1 1 1 2 3 3 4 5 6 6 5 4 2 1 0 1 1
4 4 3 3 3 2 2 2 2 2 2 1 1 1 2 3 2 2 3 2 3 3 3 3 2 2 1 1 1 1 1 2 2 3 4 6 6 5 4 3 2 2 2
3 3 3 3 3 2 1 1 1 2 2 2 1 2 3 5 5 3 3 2 3 2 2 2 2 1 1 1 2 2 2 2 2 2 2 4 5 5 5 5 5 4 4
2 3 3 3 3 2 2 2 1 0 2 3 3 2 3 4 5 5 6 5 4 3 3 2 2 2 2 2 1 1 1 1 2 2 2 2 3 3 5 6 6 6 5
3 2 3 3 3 4 4 2 1 1 1 2 3 3 2 3 4 3 3 3 2 2 3 3 3 3 2 2 2 1 2 2 3 2 1 2 2 3 4 5 7 8 8
3 3 3 3 3 4 5 4 2 1 1 1 2 3 3 3 3 3 3 3 2 1 2 2 3 2 2 2 3 3 3 2 2 1 1 2 2 3 3 4 7 8 9
3 3 3 4 4 4 6 5 3 2 2 2 2 2 3 3 4 5 3 2 2 1 2 4 4 3 3 3 2 1 0 0 2 2 1 1 2 2 2 3 5 6 7
4 4 4 4 5 4 6 6 5 2 3 2 2 2 3 4 5 5 3 3 3 3 2 2 2 2 2 2 3 3 3 2 2 2 2 1 2 0 2 2 2 3 5
Wind_Direction
69 79 85 80 78 87 90 69 66 63 59 53 64 71 72 76 82 81 72 68 67 67 68 70 69 70 73 72 72 76 82 86 87 86 84 84 83 82 80 76 74 73 69
69 70 70 67 64 64 72 80 75 74 74 70 65 68 68 75 82 89 87 75 69 66 64 65 64 68 71 73 73 77 82 85 87 86 85 83 82 80 79 75 72 71 67
72 78 70 77 72 66 61 65 67 70 73 73 68 67 60 64 74 77 85 87 79 69 65 62 60 62 66 70 72 77 82 84 85 84 83 81 78 78 77 75 74 71 67
77 76 66 71 78 74 72 65 65 65 65 72 69 67 63 61 67 72 74 79 81 76 68 65 62 61 61 66 70 75 81 85 85 84 83 80 78 75 75 75 74 71 68
69 75 66 77 77 69 58 65 62 69 74 80 88 83 68 59 60 71 69 68 75 82 82 73 69 65 62 63 69 71 75 80 84 84 83 81 79 76 75 74 76 73 70
65 73 71 76 83 70 57 66 68 60 74 73 82 85 83 77 62 61 68 65 65 72 74 79 77 69 63 61 65 67 71 76 81 82 81 79 78 76 74 73 75 73 69
58 75 79 68 82 82 77 82 84 76 71 84 80 72 65 72 81 63 65 72 68 72 74 72 73 74 67 61 61 64 70 76 79 80 79 79 78 76 73 73 73 71 69
50 63 97 90 87 89 77 77 83 74 60 82 105 116 103 59 57 76 71 72 66 67 73 74 72 75 75 67 65 66 68 75 78 79 79 81 80 77 75 76 75 71 68
61 47 51 90 111 117 122 118 111 99 69 350 58 118 124 135 110 59 72 75 70 62 67 73 71 73 80 76 73 71 72 73 78 78 78 80 81 79 77 76 74 71 68
74 62 48 75 98 105 120 143 109 92 90 344 334 21 95 128 135 126 60 78 81 72 66 70 72 72 76 79 78 79 77 75 75 75 75 75 77 78 77 76 75 71 67
93 76 57 66 81 103 111 95 82 77 78 82 44 51 61 78 123 132 141 118 74 67 78 76 78 83 85 85 83 82 80 76 76 75 75 74 73 74 76 77 74 68 63
97 78 74 81 86 91 98 102 104 103 90 70 53 96 130 115 125 110 136 142 120 94 87 83 84 88 92 90 89 88 85 81 77 76 75 73 70 68 69 72 70 65 60
142 129 100 64 75 90 96 89 100 119 122 91 72 49 49 67 94 98 111 124 131 139 106 90 97 101 102 104 102 96 91 87 82 79 74 70 67 65 65 65 64 61 59
147 139 124 103 83 91 98 84 77 69 80 80 74 64 61 40 67 99 117 120 127 126 110 123 95 106 110 117 120 115 105 99 94 87 80 75 71 67 63 62 62 60 58
151 147 141 123 103 94 92 94 82 69 75 70 69 74 88 80 75 76 90 120 134 131 135 150 128 127 119 119 133 132 124 118 111 104 95 87 80 74 70 67 64 63 58
139 154 149 145 149 132 107 90 83 74 83 80 77 68 66 75 77 78 71 48 70 127 131 136 147 150 135 136 145 142 138 133 132 126 115 104 94 85 78 71 65 64 59
150 168 165 161 150 143 133 132 145 130 126 144 153 122 102 92 104 103 94 73 62 88 114 114 116 128 124 128 134 147 142 146 152 155 145 130 115 102 87 74 61 56 52
168 176 168 156 147 147 149 144 154 154 154 136 135 126 127 108 93 92 104 106 101 104 129 137 136 145 157 157 155 161 162 168 168 171 165 160 151 138 121 82 54 40 39
165 159 155 143 149 151 146 153 156 157 160 168 158 145 147 136 143 141 129 118 120 115 115 133 152 149 168 169 153 175 175 180 179 175 177 182 182 184 199 214 229 343 345
166 168 166 152 157 157 151 160 157 152 149 114 104 123 123 132 135 144 135 132 130 123 122 131 149 162 167 191 150 198 245 229 208 186 188 190 196 202 211 219 228 254 263
166 163 160 155 157 165 161 134 146 155 146 126 78 74 90 104 102 100 109 108 117 127 140 145 158 157 178 164 200 219 224 250 253 193 191 200 193 196 211 224 228 235 241
169 157 160 160 157 161 128 117 72 154 166 154 148 149 138 117 118 116 108 103 106 129 152 157 172 177 203 198 202 211 217 237 271 251 184 235 183 186 206 205 214 221 235
178 177 168 156 157 157 156 164 179 276 179 159 162 174 177 156 148 159 150 133 124 139 149 156 170 200 200 205 184 215 231 234 236 240 168 249 221 213 217 216 216 221 229
177 183 180 165 157 170 175 183 203 204 215 203 187 176 168 176 182 156 156 166 178 192 182 157 182 202 187 179 186 206 226 242 270 280 167 233 246 233 224 223 229 227 228
178 179 189 171 164 179 189 191 188 185 201 220 211 183 179 166 168 166 161 172 176 202 176 167 172 179 177 169 158 95 341 224 269 277 271 225 258 251 236 229 233 226 230
182 180 188 186 181 182 192 194 199 198 203 210 205 188 182 168 170 171 180 186 196 210 189 190 211 239 233 222 200 180 190 205 239 269 259 206 261 288 290 258 215 248 249
Height
1546 1546 1546 1546 1547 1547 1548 1548 1548 1548 1549 1549 1549 1549 1549 1548 1548 1548 1548 1548 1548 1548 1547 1547 1547 1547 1546 1546 1545 1545 1545 1546 1546 1547 1547 1547 1548 1548 1548 1548 1548 1549 1549
1547 1547 1547 1547 1548 1549 1549 1549 1550 1550 1550 1550 1550 1550 1550 1550 1550 1550 1550 1550 1549 1549 1549 1549 1548 1548 1547 1547 1546 1545 1546 1546 1547 1547 1548 1548 1549 1549 1549 1549 1549 1549 1550
1547 1547 1548 1548 1549 1549 1550 1550 1551 1551 1551 1551 1551 1551 1552 1552 1552 1552 1551 1551 1551 1550 1550 1550 1549 1549 1548 1548 1547 1547 1547 1547 1548 1548 1549 1549 1549 1549 1549 1549 1550 1550 1550
1548 1548 1549 1550 1550 1550 1551 1551 1551 1551 1551 1552 1552 1553 1553 1553 1554 1553 1553 1553 1552 1552 1552 1551 1550 1550 1550 1549 1549 1548 1548 1549 1549 1549 1549 1549 1550 1550 1550 1550 1550 1550 1550
1549 1549 1550 1551 1551 1551 1551 1552 1552 1552 1552 1553 1553 1554 1555 1555 1555 1555 1555 1555 1554 1554 1553 1552 1552 1551 1551 1550 1550 1550 1550 1550 1550 1550 1550 1550 1550 1551 1551 1551 1551 1551 1551
1550 1550 1551 1551 1551 1552 1552 1552 1553 1553 1554 1554 1555 1555 1556 1556 1556 1556 1556 1556 1556 1555 1554 1553 1553 1552 1551 1551 1551 1551 1550 1551 1551 1551 1551 1551 1551 1552 1552 1551 1551 1551 1551
1550 1551 1551 1552 1552 1552 1553 1553 1554 1554 1555 1556 1556 1556 1557 1557 1558 1558 1557 1557 1557 1557 1556 1555 1554 1553 1552 1552 1552 1551 1551 1552 1552 1552 1552 1552 1552 1552 1552 1552 1552 1552 1552
1550 1551 1551 1552 1552 1553 1553 1554 1555 1555 1556 1556 1557 1557 1558 1560 1559 1559 1559 1558 1558 1558 1557 1556 1555 1554 1553 1552 1552 1552 1552 1552 1553 1553 1553 1553 1553 1553 1553 1553 1552 1552 1552
1550 1551 1551 1552 1552 1553 1553 1554 1555 1555 1556 1556 1557 1558 1558 1558 1559 1560 1559 1559 1559 1558 1558 1557 1556 1555 1554 1553 1553 1553 1553 1553 1553 1553 1553 1553 1553 1553 1553 1553 1553 1553 1552
1550 1551 1551 1552 1552 1553 1553 1554 1554 1555 1556 1556 1557 1557 1558 1558 1559 1560 1561 1560 1560 1559 1559 1558 1557 1556 1555 1555 1554 1554 1554 1554 1554 1554 1554 1554 1554 1554 1554 1553 1553 1553 1552
1550 1551 1551 1551 1552 1552 1553 1553 1554 1555 1555 1556 1556 1557 1557 1558 1558 1559 1560 1561 1560 1560 1560 1559 1558 1557 1556 1556 1555 1555 1555 1555 1555 1555 1555 1555 1555 1554 1554 1554 1553 1553 1553
1550 1550 1551 1551 1552 1552 1552 1553 1553 1554 1555 1555 1556 1556 1557 1557 1557 1558 1558 1559 1560 1560 1560 1559 1559 1558 1557 1557 1556 1556 1556 1556 1555 1555 1555 1555 1555 1555 1554 1554 1554 1553 1553
1549 1549 1550 1551 1551 1552 1552 1552 1553 1553 1554 1554 1555 1555 1556 1556 1557 1557 1557 1558 1559 1560 1560 1560 1559 1559 1558 1557 1557 1557 1556 1556 1556 1556 1555 1555 1555 1555 1554 1554 1553 1553 1552
1548 1549 1549 1550 1551 1551 1551 1552 1552 1553 1553 1554 1554 1555 1555 1556 1556 1556 1557 1557 1558 1559 1559 1559 1559 1559 1558 1558 1557 1557 1557 1557 1556 1556 1556 1555 1555 1554 1554 1553 1553 1553 1552
1547 1548 1548 1549 1549 1550 1551 1551 1551 1552 1552 1553 1553 1554 1554 1555 1555 1556 1556 1557 1558 1558 1558 1559 1559 1559 1558 1558 1557 1557 1557 1557 1556 1556 1556 1555 1555 1554 1554 1553 1553 1552 1551
1546 1547 1548 1548 1548 1549 1549 1550 1551 1551 1552 1552 1553 1553 1553 1554 1554 1555 1555 1556 1556 1557 1557 1558 1558 1558 1558 1557 1557 1557 1557 1556 1556 1556 1555 1555 1554 1554 1553 1553 1552 1551 1551
1545 1546 1547 1547 1548 1548 1548 1549 1550 1550 1551 1551 1552 1552 1553 1553 1553 1554 1554 1555 1555 1556 1555 1556 1557 1557 1557 1557 1557 1557 1556 1556 1556 1555 1555 1554 1554 1553 1553 1552 1551 1551 1550
1544 1545 1546 1546 1547 1548 1548 1549 1549 1549 1550 1550 1551 1551 1552 1552 1553 1553 1553 1554 1554 1555 1555 1555 1556 1556 1556 1556 1556 1556 1556 1555 1555 1555 1554 1554 1553 1553 1552 1552 1551 1550 1549
1542 1543 1544 1545 1546 1546 1547 1547 1548 1548 1549 1549 1550 1550 1550 1551 1551 1552 1552 1552 1553 1553 1554 1554 1555 1555 1555 1556 1555 1555 1555 1555 1554 1554 1553 1553 1553 1552 1551 1551 1550 1549 1548
1540 1541 1542 1543 1544 1545 1545 1546 1546 1547 1547 1548 1548 1549 1549 1550 1550 1550 1551 1551 1552 1552 1553 1553 1553 1554 1554 1554 1554 1554 1554 1554 1553 1553 1552 1552 1551 1551 1550 1549 1549 1548 1547
1538 1539 1540 1541 1542 1543 1544 1544 1545 1545 1545 1546 1546 1547 1548 1548 1549 1549 1550 1550 1550 1551 1551 1551 1552 1552 1552 1553 1553 1553 1552 1552 1552 1551 1551 1550 1549 1549 1548 1548 1547 1546 1545
1536 1537 1537 1538 1539 1540 1541 1542 1543 1543 1544 1544 1544 1545 1546 1546 1547 1547 1548 1549 1549 1549 1549 1550 1550 1550 1550 1551 1551 1551 1550 1550 1549 1550 1549 1548 1548 1547 1546 1545 1545 1544 1543
1532 1534 1535 1536 1536 1537 1538 1540 1540 1541 1541 1542 1542 1543 1543 1544 1545 1545 1546 1547 1547 1548 1548 1548 1548 1548 1548 1548 1548 1548 1548 1548 1547 1547 1547 1545 1545 1544 1544 1543 1542 1541 1540
1529 1531 1532 1533 1533 1534 1536 1537 1538 1538 1539 1539 1540 1540 1541 1542 1542 1543 1543 1544 1544 1545 1545 1546 1546 1546 1546 1546 1546 1546 1545 1545 1545 1544 1544 1543 1542 1541 1541 1540 1539 1538 1537
1526 1527 1528 1530 1530 1531 1532 1534 1534 1535 1536 1536 1537 1538 1539 1539 1540 1540 1541 1541 1541 1542 1543 1543 1543 1543 1543 1544 1543 1543 1543 1542 1541 1541 1541 1540 1539 1538 1538 1537 1536 1535 1534
1523 1524 1525 1526 1527 1528 1529 1530 1531 1532 1532 1533 1534 1535 1535 1536 1537 1537 1538 1538 1538 1539 1539 1540 1540 1540 1540 1540 1540 1540 1539 1539 1538 1537 1537 1537 1535 1535 1534 1533 1533 1532 1531